Time,TemperatureF,DewpointF,PressureIn,WindDirection,WindDirectionDegrees,WindSpeedMPH,WindSpeedGustMPH,Humidity,HourlyPrecipIn,Conditions,Clouds,dailyrainin,SoftwareType,DateUTC
2013-05-03 00:04:00,47.4,25.0,30.15,SE,133,1.0,3.0,41,0.00,,,0.00,weatherlink.com 1.10,2013-05-03 06:04:00,
2013-05-03 00:19:00,46.8,27.0,30.15,South,171,0.0,1.0,47,0.00,,,0.00,weatherlink.com 1.10,2013-05-03 06:19:00,
2013-05-03 00:34:00,46.6,28.0,30.15,South,171,0.0,2.0,49,0.00,,,0.00,weatherlink.com 1.10,2013-05-03 06:34:00,
2013-05-03 00:49:00,46.5,28.0,30.14,South,170,0.0,0.0,48,0.00,,,0.00,weatherlink.com 1.10,2013-05-03 06:49:00,
2013-05-03 01:04:00,46.9,28.0,30.14,ENE,68,0.0,4.0,49,0.00,,,0.00,weatherlink.com 1.10,2013-05-03 07:04:00,
2013-05-03 01:19:00,46.1,28.0,30.14,ENE,68,0.0,1.0,50,0.00,,,0.00,weatherlink.com 1.10,2013-05-03 07:19:00,
2013-05-03 01:34:00,45.2,28.0,30.13,ENE,68,0.0,0.0,52,0.00,,,0.00,weatherlink.com 1.10,2013-05-03 07:34:00,
2013-05-03 01:49:00,45.1,29.0,30.13,ENE,68,0.0,0.0,53,0.00,,,0.00,weatherlink.com 1.10,2013-05-03 07:49:00,
2013-05-03 02:04:00,44.3,31.0,30.12,ENE,68,0.0,1.0,60,0.00,,,0.00,weatherlink.com 1.10,2013-05-03 08:04:00,
2013-05-03 02:19:00,45.5,27.0,30.12,ENE,68,0.0,2.0,49,0.00,,,0.00,weatherlink.com 1.10,2013-05-03 08:19:00,
2013-05-03 02:34:00,45.1,30.0,30.11,ENE,68,0.0,1.0,56,0.00,,,0.00,weatherlink.com 1.10,2013-05-03 08:34:00,
2013-05-03 02:49:00,44.0,31.0,30.11,ENE,68,0.0,1.0,61,0.00,,,0.00,weatherlink.com 1.10,2013-05-03 08:49:00,
2013-05-03 03:04:00,44.6,28.0,30.11,ENE,68,0.0,1.0,53,0.00,,,0.00,weatherlink.com 1.10,2013-05-03 09:04:00,
2013-05-03 03:19:00,43.8,31.0,30.11,ENE,68,2.0,2.0,62,0.00,,,0.00,weatherlink.com 1.10,2013-05-03 09:19:00,
2013-05-03 03:34:00,43.6,29.0,30.11,ENE,68,0.0,1.0,56,0.00,,,0.00,weatherlink.com 1.10,2013-05-03 09:34:00,
2013-05-03 03:49:00,43.4,30.0,30.11,NNE,12,0.0,0.0,60,0.00,,,0.00,weatherlink.com 1.10,2013-05-03 09:49:00,
2013-05-03 04:04:00,43.1,30.0,30.11,NNE,12,1.0,1.0,61,0.00,,,0.00,weatherlink.com 1.10,2013-05-03 10:04:00,
2013-05-03 04:19:00,42.9,30.0,30.11,NNE,12,1.0,1.0,61,0.00,,,0.00,weatherlink.com 1.10,2013-05-03 10:19:00,
2013-05-03 04:34:00,42.8,31.0,30.10,NNE,12,0.0,0.0,63,0.00,,,0.00,weatherlink.com 1.10,2013-05-03 10:34:00,
2013-05-03 04:49:00,42.0,32.0,30.11,NNE,12,2.0,2.0,69,0.00,,,0.00,weatherlink.com 1.10,2013-05-03 10:49:00,
2013-05-03 05:04:00,43.4,30.0,30.10,North,5,2.0,3.0,59,0.00,,,0.00,weatherlink.com 1.10,2013-05-03 11:04:00,
2013-05-03 05:19:00,44.3,30.0,30.10,North,9,4.0,4.0,57,0.00,,,0.00,weatherlink.com 1.10,2013-05-03 11:19:00,
2013-05-03 05:34:00,45.6,28.0,30.10,North,5,3.0,5.0,51,0.00,,,0.00,weatherlink.com 1.10,2013-05-03 11:34:00,
2013-05-03 05:49:00,45.6,31.0,30.10,North,360,0.0,3.0,56,0.00,,,0.00,weatherlink.com 1.10,2013-05-03 11:49:00,
2013-05-03 06:04:00,44.1,29.0,30.09,North,5,2.0,2.0,56,0.00,,,0.00,weatherlink.com 1.10,2013-05-03 12:04:00,
2013-05-03 06:19:00,44.0,29.0,30.09,NNE,14,0.0,0.0,57,0.00,,,0.00,weatherlink.com 1.10,2013-05-03 12:19:00,
2013-05-03 06:34:00,43.8,30.0,30.10,NNE,14,0.0,2.0,58,0.00,,,0.00,weatherlink.com 1.10,2013-05-03 12:34:00,
2013-05-03 06:50:00,42.2,32.0,30.10,NNE,15,0.0,0.0,68,0.00,,,0.00,weatherlink.com 1.10,2013-05-03 12:50:00,
2013-05-03 07:05:00,42.2,33.0,30.09,NNE,19,0.0,0.0,69,0.00,,,0.00,weatherlink.com 1.10,2013-05-03 13:05:00,
2013-05-03 07:20:00,42.2,33.0,30.09,NNE,19,0.0,0.0,70,0.00,,,0.00,weatherlink.com 1.10,2013-05-03 13:20:00,
2013-05-03 07:35:00,42.7,34.0,30.09,NNE,19,0.0,0.0,70,0.00,,,0.00,weatherlink.com 1.10,2013-05-03 13:35:00,
2013-05-03 07:50:00,43.1,33.0,30.10,NNE,19,0.0,0.0,68,0.00,,,0.00,weatherlink.com 1.10,2013-05-03 13:50:00,
2013-05-03 08:05:00,43.6,32.0,30.09,East,87,0.0,2.0,65,0.00,,,0.00,weatherlink.com 1.10,2013-05-03 14:05:00,
2013-05-03 08:20:00,44.3,32.0,30.09,WNW,303,0.0,3.0,63,0.00,,,0.00,weatherlink.com 1.10,2013-05-03 14:20:00,
2013-05-03 08:35:00,45.2,33.0,30.09,WNW,303,0.0,0.0,63,0.00,,,0.00,weatherlink.com 1.10,2013-05-03 14:35:00,
2013-05-03 08:50:00,46.0,33.0,30.09,WNW,303,0.0,0.0,62,0.00,,,0.00,weatherlink.com 1.10,2013-05-03 14:50:00,
2013-05-03 09:05:00,47.0,34.0,30.09,WSW,258,1.0,4.0,60,0.00,,,0.00,weatherlink.com 1.10,2013-05-03 15:05:00,
2013-05-03 09:20:00,48.2,32.0,30.08,NNE,17,8.0,9.0,54,0.00,,,0.00,weatherlink.com 1.10,2013-05-03 15:20:00,
2013-05-03 09:35:00,49.2,32.0,30.08,NW,319,8.0,9.0,51,0.00,,,0.00,weatherlink.com 1.10,2013-05-03 15:35:00,
2013-05-03 09:50:00,50.4,32.0,30.08,North,355,6.0,11.0,50,0.00,,,0.00,weatherlink.com 1.10,2013-05-03 15:50:00,
2013-05-03 10:05:00,52.0,32.0,30.08,NNW,344,9.0,15.0,46,0.00,,,0.00,weatherlink.com 1.10,2013-05-03 16:05:00,
2013-05-03 10:20:00,52.0,32.0,30.09,NW,306,14.0,18.0,47,0.00,,,0.00,weatherlink.com 1.10,2013-05-03 16:20:00,
2013-05-03 10:35:00,51.0,34.0,30.10,North,355,9.0,20.0,52,0.00,,,0.00,weatherlink.com 1.10,2013-05-03 16:35:00,
2013-05-03 10:50:00,51.5,36.0,30.10,North,349,11.0,20.0,55,0.00,,,0.00,weatherlink.com 1.10,2013-05-03 16:50:00,
2013-05-03 11:05:00,51.5,36.0,30.10,North,350,11.0,17.0,56,0.00,,,0.00,weatherlink.com 1.10,2013-05-03 17:05:00,
2013-05-03 11:20:00,51.9,36.0,30.10,North,355,13.0,15.0,56,0.00,,,0.00,weatherlink.com 1.10,2013-05-03 17:20:00,
2013-05-03 11:35:00,51.7,37.0,30.09,NW,320,6.0,15.0,58,0.00,,,0.00,weatherlink.com 1.10,2013-05-03 17:35:00,
2013-05-03 11:50:00,51.4,38.0,30.10,NNW,327,6.0,14.0,60,0.00,,,0.00,weatherlink.com 1.10,2013-05-03 17:50:00,
2013-05-03 12:05:00,51.4,37.0,30.09,North,5,9.0,13.0,59,0.00,,,0.00,weatherlink.com 1.10,2013-05-03 18:05:00,
2013-05-03 12:20:00,51.9,38.0,30.09,NW,324,5.0,10.0,59,0.00,,,0.00,weatherlink.com 1.10,2013-05-03 18:20:00,
2013-05-03 12:35:00,51.8,37.0,30.09,NNE,27,7.0,10.0,58,0.00,,,0.00,weatherlink.com 1.10,2013-05-03 18:35:00,
2013-05-03 12:50:00,52.5,38.0,30.09,NNW,332,4.0,10.0,58,0.00,,,0.00,weatherlink.com 1.10,2013-05-03 18:50:00,
2013-05-03 13:05:00,53.0,37.0,30.09,NNE,15,5.0,11.0,55,0.00,,,0.00,weatherlink.com 1.10,2013-05-03 19:05:00,
2013-05-03 13:20:00,53.4,36.0,30.09,NW,317,5.0,9.0,52,0.00,,,0.00,weatherlink.com 1.10,2013-05-03 19:20:00,
2013-05-03 13:35:00,54.2,38.0,30.08,NNE,15,7.0,11.0,54,0.00,,,0.00,weatherlink.com 1.10,2013-05-03 19:35:00,
2013-05-03 13:51:00,54.2,37.0,30.08,North,355,6.0,11.0,52,0.00,,,0.00,weatherlink.com 1.10,2013-05-03 19:51:00,
2013-05-03 14:06:00,55.7,37.0,30.07,NW,312,4.0,13.0,49,0.00,,,0.00,weatherlink.com 1.10,2013-05-03 20:06:00,
2013-05-03 14:21:00,56.0,38.0,30.07,West,269,5.0,10.0,52,0.00,,,0.00,weatherlink.com 1.10,2013-05-03 20:21:00,
2013-05-03 14:36:00,54.4,38.0,30.07,NNW,346,13.0,18.0,55,0.00,,,0.00,weatherlink.com 1.10,2013-05-03 20:36:00,
2013-05-03 14:51:00,54.5,39.0,30.08,NW,320,6.0,11.0,57,0.00,,,0.00,weatherlink.com 1.10,2013-05-03 20:51:00,
2013-05-03 15:06:00,54.6,39.0,30.07,NNW,343,7.0,13.0,56,0.00,,,0.00,weatherlink.com 1.10,2013-05-03 21:06:00,
2013-05-03 15:21:00,57.1,39.0,30.07,NW,321,4.0,11.0,51,0.00,,,0.00,weatherlink.com 1.10,2013-05-03 21:21:00,
2013-05-03 15:36:00,56.6,38.0,30.07,NNE,13,6.0,16.0,50,0.00,,,0.00,weatherlink.com 1.10,2013-05-03 21:36:00,
2013-05-03 15:51:00,56.4,39.0,30.07,NNW,328,10.0,12.0,53,0.00,,,0.00,weatherlink.com 1.10,2013-05-03 21:51:00,
2013-05-03 16:06:00,56.1,38.0,30.06,NNW,345,10.0,20.0,52,0.00,,,0.00,weatherlink.com 1.10,2013-05-03 22:06:00,
2013-05-03 16:21:00,55.4,39.0,30.07,NW,321,14.0,21.0,55,0.00,,,0.00,weatherlink.com 1.10,2013-05-03 22:21:00,
2013-05-03 16:36:00,55.9,39.0,30.06,NNW,342,11.0,18.0,54,0.00,,,0.00,weatherlink.com 1.10,2013-05-03 22:36:00,
2013-05-03 16:51:00,55.9,39.0,30.06,WNW,298,10.0,17.0,53,0.00,,,0.00,weatherlink.com 1.10,2013-05-03 22:51:00,
2013-05-03 17:06:00,55.8,40.0,30.06,WNW,288,7.0,11.0,56,0.00,,,0.00,weatherlink.com 1.10,2013-05-03 23:06:00,
2013-05-03 17:21:00,56.1,39.0,30.06,NNW,327,13.0,16.0,54,0.00,,,0.00,weatherlink.com 1.10,2013-05-03 23:21:00,
2013-05-03 17:36:00,56.3,39.0,30.06,WNW,302,12.0,13.0,52,0.00,,,0.00,weatherlink.com 1.10,2013-05-03 23:36:00,
2013-05-03 17:51:00,55.7,40.0,30.07,West,275,7.0,12.0,57,0.00,,,0.00,weatherlink.com 1.10,2013-05-03 23:51:00,
2013-05-03 18:06:00,56.8,41.0,30.07,West,276,5.0,9.0,55,0.00,,,0.00,weatherlink.com 1.10,2013-05-04 00:06:00,
2013-05-03 18:21:00,57.1,39.0,30.07,North,355,8.0,12.0,52,0.00,,,0.00,weatherlink.com 1.10,2013-05-04 00:21:00,
2013-05-03 18:36:00,57.1,39.0,30.07,NW,318,5.0,10.0,52,0.00,,,0.00,weatherlink.com 1.10,2013-05-04 00:36:00,
2013-05-03 18:51:00,56.2,39.0,30.07,NNW,345,9.0,13.0,53,0.00,,,0.00,weatherlink.com 1.10,2013-05-04 00:51:00,
2013-05-03 19:06:00,55.4,38.0,30.07,North,349,10.0,16.0,52,0.00,,,0.00,weatherlink.com 1.10,2013-05-04 01:06:00,
2013-05-03 19:21:00,54.8,38.0,30.08,North,5,9.0,15.0,54,0.00,,,0.00,weatherlink.com 1.10,2013-05-04 01:21:00,
2013-05-03 19:36:00,54.6,38.0,30.08,North,349,12.0,17.0,54,0.00,,,0.00,weatherlink.com 1.10,2013-05-04 01:36:00,
2013-05-03 19:51:00,54.2,39.0,30.08,North,355,8.0,14.0,57,0.00,,,0.00,weatherlink.com 1.10,2013-05-04 01:51:00,
2013-05-03 20:06:00,53.5,40.0,30.09,North,360,6.0,14.0,60,0.00,,,0.00,weatherlink.com 1.10,2013-05-04 02:06:00,
2013-05-03 20:21:00,52.7,40.0,30.09,North,9,7.0,13.0,63,0.00,,,0.00,weatherlink.com 1.10,2013-05-04 02:21:00,
2013-05-03 20:36:00,52.1,41.0,30.10,North,5,6.0,14.0,66,0.00,,,0.00,weatherlink.com 1.10,2013-05-04 02:36:00,
2013-05-03 20:51:00,50.5,43.0,30.10,NW,322,2.0,12.0,76,0.00,,,0.00,weatherlink.com 1.10,2013-05-04 02:51:00,
2013-05-03 21:06:00,49.0,43.0,30.11,NE,53,3.0,3.0,81,0.00,,,0.00,weatherlink.com 1.10,2013-05-04 03:06:00,
2013-05-03 21:21:00,48.0,43.0,30.11,East,98,1.0,3.0,82,0.00,,,0.00,weatherlink.com 1.10,2013-05-04 03:21:00,
2013-05-03 21:36:00,47.5,42.0,30.12,NE,48,0.0,4.0,82,0.00,,,0.00,weatherlink.com 1.10,2013-05-04 03:36:00,
2013-05-03 21:51:00,47.7,43.0,30.12,ENE,62,0.0,5.0,83,0.00,,,0.00,weatherlink.com 1.10,2013-05-04 03:51:00,
2013-05-03 22:06:00,47.2,43.0,30.12,ENE,71,0.0,1.0,84,0.00,,,0.00,weatherlink.com 1.10,2013-05-04 04:06:00,
2013-05-03 22:21:00,46.9,43.0,30.12,ENE,71,0.0,1.0,86,0.00,,,0.00,weatherlink.com 1.10,2013-05-04 04:21:00,
2013-05-03 22:36:00,46.6,42.0,30.13,ENE,71,0.0,3.0,84,0.00,,,0.00,weatherlink.com 1.10,2013-05-04 04:36:00,
2013-05-03 22:51:00,46.3,42.0,30.13,ENE,71,0.0,1.0,84,0.00,,,0.00,weatherlink.com 1.10,2013-05-04 04:51:00,
2013-05-03 23:06:00,46.4,41.0,30.13,ENE,71,0.0,2.0,82,0.00,,,0.00,weatherlink.com 1.10,2013-05-04 05:06:00,
2013-05-03 23:21:00,45.8,41.0,30.13,ENE,69,0.0,2.0,83,0.00,,,0.00,weatherlink.com 1.10,2013-05-04 05:21:00,
2013-05-03 23:36:00,45.1,41.0,30.12,ENE,69,0.0,0.0,85,0.00,,,0.00,weatherlink.com 1.10,2013-05-04 05:36:00,
2013-05-03 23:51:00,44.4,41.0,30.12,ENE,69,0.0,0.0,87,0.00,,,0.00,weatherlink.com 1.10,2013-05-04 05:51:00,